{"data":{"norad_id":58388,"epoch":"2026-05-24T22:22:54.441120Z","epoch_age_seconds":74098,"freshness":"FRESH","line1":"1 58388U 23178Q   26144.93257455  .00002765  00000+0  92940-4 0  9997","line2":"2 58388  53.1615   6.2896 0001399  84.4158 275.7004 15.34397871141579","mean_motion":15.34397871,"eccentricity":0.0001399,"inclination_deg":53.1615,"raan_deg":6.2896,"arg_perigee_deg":84.4158,"mean_anomaly_deg":275.7004,"bstar":9.294e-5,"rev_number":14157,"period_min":93.847888296503,"perigee_km":461.75253361622,"apogee_km":463.66660248596,"semimajor_km":6840.8465680511,"source":"CELESTRAK","updated_at":"2026-05-25T13:38:18.614832Z"}}